Погода в Зандворте

Нидерланды     52°22′16″N   4°31′55″E
темп.,
°C
ветер,
м/с
пор.,
м/с
влажн.,
%
обл.,
%
осадки,
мм/ч
давл.,
гПа
погр.,
м
21 июня, пн
пн2123:00+15ссв798399 0.0 1009372
02:00+14св71183100 0.0 1009496
05:00+13св61091100 0.9 1008476
08:00+13св81293100 4.6 1008538
11:00+14св6990100 0.3 1010682
14:00+13ссв6892100 2.4 1011557
17:00+14св6888100 0.6 1013664
20:00+14св688077 0.7 1014770
22 июня, вт
вт2223:00+13св488193 0.0 1016578
02:00+13ссв3683100 0.0 1016387
05:00+13св3683100 0.1 1016392
08:00+13ссв5775100 0.2 1018727
11:00+15ссв5660100 0.0 10181153
14:00+17ссв7856100 0.0 10181246
17:00+17ссв7757100 0.0 10191222
20:00+15ссв7764100 0.0 1020919
23 июня, ср
ср2323:00+14ссв6872100 0.0 1021654
02:00+13св5875100 0.0 1021577
05:00+13св487878 0.0 1022507
08:00+14св567556 0.0 1022560
11:00+17ссв455473 0.0 1022849
14:00+19ссв5650100 0.0 1022799
17:00+19ссв66520 0.0 1021824
20:00+17ссв67605 0.0 1022648
24 июня, чт
чт2423:00+14св58725 0.0 1023405
02:00+13св47775 0.0 1023278
05:00+12св46812 0.0 1022233
08:00+14св46735 0.0 1022352
11:00+17ссв44495 0.0 1021742
14:00+18ссз55501 0.0 1020830
17:00+18ссз75552 0.0 1019812
20:00+17с66620 0.0 1019421
25 июня, пт
пт2523:00+15ссв35700 0.0 1019235
02:00+13всв22710 0.0 101892
05:00+12ююв22782 0.0 101771
08:00+14ю12714 0.0 1017171
11:00+17зюз224823 0.0 1017538
14:00+18зсз32455 0.0 1017835
17:00+18зсз43445 0.0 1017461
20:00+18ссз23495 0.0 1017205